Total_Precipitation_Accumulation
1.23 1.18 1.06 0.86 0.75 0.76 0.78 0.74 0.68 0.72 0.67 0.69 0.67 0.71 0.83 0.84 0.83 0.93 1.00 1.03 1.15 1.24 1.25 1.28 1.46 1.59 1.70 1.75 1.76 1.75 1.79 1.73 1.59 1.38 1.09 0.91 0.98 0.97 0.98 0.86 0.91 0.96 0.87
0.95 0.85 0.73 0.57 0.52 0.56 0.58 0.53 0.45 0.48 0.45 0.51 0.55 0.54 0.72 0.89 0.91 0.94 0.95 0.93 1.01 1.07 1.12 1.20 1.28 1.31 1.40 1.54 1.65 1.64 1.71 1.75 1.68 1.57 1.30 1.07 1.04 1.05 1.13 1.15 1.10 1.05 1.01
0.89 0.72 0.65 0.57 0.54 0.53 0.47 0.40 0.32 0.32 0.35 0.39 0.52 0.51 0.56 0.73 0.84 0.85 0.83 0.85 0.89 0.95 0.98 1.03 1.07 1.15 1.25 1.29 1.38 1.47 1.55 1.59 1.66 1.60 1.50 1.37 1.22 1.14 1.14 1.11 1.20 1.35 1.30
1.06 0.85 0.73 0.67 0.57 0.47 0.38 0.34 0.29 0.32 0.37 0.35 0.36 0.38 0.44 0.54 0.67 0.69 0.68 0.71 0.74 0.77 0.87 0.94 0.98 1.03 1.11 1.19 1.21 1.33 1.45 1.54 1.55 1.52 1.47 1.41 1.35 1.31 1.27 1.22 1.28 1.41 1.49
0.75 0.55 0.47 0.45 0.39 0.31 0.26 0.23 0.22 0.23 0.22 0.24 0.22 0.23 0.28 0.37 0.43 0.44 0.51 0.59 0.66 0.70 0.80 0.82 0.86 0.82 0.86 0.93 0.93 1.10 1.26 1.43 1.49 1.53 1.45 1.35 1.29 1.29 1.28 1.29 1.34 1.50 1.55
0.38 0.31 0.28 0.23 0.19 0.17 0.16 0.15 0.11 0.09 0.10 0.15 0.15 0.18 0.22 0.25 0.31 0.30 0.35 0.48 0.58 0.63 0.70 0.74 0.80 0.82 0.78 0.74 0.74 0.81 0.94 1.06 1.24 1.36 1.40 1.33 1.25 1.23 1.32 1.43 1.45 1.52 1.62
0.14 0.10 0.10 0.09 0.08 0.07 0.07 0.07 0.07 0.07 0.07 0.09 0.09 0.15 0.19 0.17 0.19 0.18 0.29 0.49 0.54 0.55 0.54 0.67 0.78 0.84 0.87 0.89 0.77 0.76 0.77 0.82 0.91 1.08 1.22 1.22 1.21 1.22 1.29 1.38 1.45 1.49 1.41
0.10 0.07 0.06 0.07 0.07 0.07 0.07 0.06 0.04 0.03 0.04 0.08 0.09 0.16 0.15 0.10 0.12 0.15 0.22 0.39 0.47 0.45 0.47 0.58 0.73 0.84 0.87 0.89 0.84 0.90 0.88 0.79 0.76 0.84 1.02 1.10 1.10 1.23 1.36 1.46 1.58 1.57 1.52
0.09 0.09 0.08 0.08 0.09 0.08 0.07 0.05 0.03 0.03 0.04 0.07 0.11 0.12 0.09 0.06 0.08 0.12 0.20 0.38 0.46 0.47 0.44 0.52 0.67 0.76 0.86 0.87 0.84 0.95 0.95 0.78 0.71 0.81 0.85 0.92 1.00 1.13 1.31 1.45 1.54 1.55 1.53
0.07 0.08 0.11 0.12 0.10 0.09 0.11 0.12 0.09 0.07 0.06 0.07 0.09 0.10 0.08 0.08 0.07 0.08 0.15 0.26 0.36 0.44 0.44 0.49 0.69 0.75 0.77 0.74 0.76 0.96 1.06 0.93 0.70 0.68 0.75 0.88 0.96 1.09 1.32 1.46 1.68 1.68 1.49
0.06 0.09 0.09 0.08 0.09 0.10 0.12 0.15 0.14 0.10 0.09 0.08 0.08 0.07 0.06 0.06 0.08 0.08 0.14 0.16 0.21 0.27 0.32 0.38 0.40 0.52 0.56 0.60 0.71 0.82 0.92 0.83 0.75 0.83 0.92 0.95 1.02 1.08 1.18 1.30 1.52 1.70 1.63
0.07 0.08 0.08 0.08 0.08 0.09 0.12 0.11 0.09 0.08 0.07 0.06 0.06 0.06 0.06 0.07 0.07 0.08 0.11 0.13 0.15 0.19 0.23 0.28 0.32 0.41 0.45 0.51 0.58 0.63 0.67 0.72 0.78 0.92 0.94 0.86 0.91 0.98 0.99 1.08 1.25 1.39 1.30
0.06 0.07 0.09 0.09 0.10 0.11 0.11 0.10 0.09 0.07 0.07 0.07 0.07 0.07 0.08 0.09 0.08 0.08 0.09 0.10 0.12 0.14 0.17 0.24 0.28 0.35 0.35 0.41 0.49 0.50 0.59 0.80 0.92 0.87 0.85 0.81 0.80 0.83 0.83 0.94 1.13 1.28 1.24
0.06 0.07 0.09 0.10 0.12 0.12 0.11 0.09 0.09 0.07 0.08 0.09 0.09 0.09 0.11 0.13 0.09 0.08 0.10 0.12 0.14 0.17 0.19 0.22 0.26 0.32 0.35 0.38 0.45 0.53 0.64 0.81 0.95 0.81 0.68 0.70 0.70 0.79 0.85 0.84 0.93 1.03 1.18
0.06 0.07 0.09 0.09 0.10 0.12 0.11 0.10 0.10 0.09 0.09 0.10 0.10 0.11 0.10 0.10 0.10 0.12 0.12 0.14 0.18 0.19 0.23 0.31 0.41 0.51 0.52 0.52 0.58 0.62 0.65 0.66 0.72 0.66 0.65 0.70 0.73 0.75 0.81 0.83 0.85 0.86 0.89
0.06 0.06 0.08 0.08 0.08 0.10 0.12 0.12 0.12 0.11 0.12 0.11 0.11 0.11 0.10 0.09 0.11 0.15 0.18 0.18 0.21 0.23 0.32 0.37 0.48 0.62 0.67 0.69 0.70 0.70 0.72 0.67 0.68 0.64 0.66 0.67 0.67 0.67 0.70 0.78 0.85 0.92 0.87
0.07 0.07 0.08 0.07 0.07 0.08 0.11 0.13 0.15 0.15 0.14 0.12 0.13 0.12 0.12 0.13 0.13 0.14 0.17 0.19 0.23 0.31 0.33 0.38 0.55 0.62 0.60 0.62 0.68 0.71 0.65 0.56 0.56 0.56 0.52 0.53 0.53 0.52 0.55 0.61 0.70 0.77 0.78
0.11 0.11 0.12 0.10 0.09 0.09 0.11 0.12 0.14 0.16 0.18 0.16 0.14 0.13 0.13 0.13 0.14 0.14 0.17 0.21 0.26 0.32 0.37 0.51 0.65 0.68 0.62 0.56 0.53 0.49 0.44 0.41 0.41 0.42 0.43 0.43 0.46 0.48 0.50 0.51 0.54 0.58 0.63
0.15 0.14 0.14 0.14 0.12 0.10 0.11 0.11 0.12 0.13 0.14 0.16 0.16 0.15 0.15 0.15 0.15 0.15 0.17 0.20 0.23 0.24 0.31 0.41 0.50 0.57 0.52 0.40 0.34 0.32 0.31 0.32 0.34 0.37 0.40 0.44 0.45 0.47 0.49 0.52 0.53 0.55 0.58
0.12 0.15 0.15 0.14 0.13 0.11 0.11 0.11 0.11 0.12 0.14 0.15 0.15 0.17 0.18 0.17 0.16 0.16 0.16 0.17 0.19 0.19 0.21 0.25 0.29 0.31 0.29 0.27 0.27 0.28 0.29 0.32 0.34 0.37 0.40 0.43 0.48 0.53 0.53 0.51 0.53 0.54 0.55
0.09 0.14 0.13 0.11 0.10 0.10 0.11 0.13 0.14 0.13 0.13 0.13 0.13 0.14 0.17 0.16 0.15 0.16 0.17 0.18 0.19 0.20 0.22 0.24 0.26 0.27 0.28 0.29 0.29 0.30 0.30 0.32 0.34 0.36 0.40 0.45 0.48 0.50 0.54 0.54 0.53 0.54 0.55
0.08 0.09 0.10 0.11 0.11 0.11 0.11 0.12 0.12 0.12 0.12 0.12 0.12 0.13 0.15 0.15 0.15 0.15 0.16 0.17 0.18 0.20 0.22 0.25 0.27 0.31 0.33 0.33 0.32 0.32 0.32 0.31 0.33 0.38 0.42 0.46 0.49 0.49 0.50 0.52 0.53 0.53 0.52
0.06 0.06 0.06 0.08 0.10 0.11 0.12 0.12 0.12 0.11 0.12 0.12 0.13 0.13 0.13 0.13 0.14 0.14 0.15 0.16 0.19 0.21 0.22 0.24 0.26 0.28 0.30 0.31 0.32 0.34 0.34 0.32 0.34 0.39 0.46 0.49 0.52 0.53 0.53 0.52 0.52 0.53 0.53
0.05 0.06 0.06 0.07 0.09 0.11 0.12 0.13 0.12 0.12 0.12 0.14 0.14 0.14 0.14 0.15 0.15 0.16 0.16 0.16 0.18 0.21 0.23 0.23 0.23 0.24 0.26 0.30 0.32 0.34 0.34 0.34 0.36 0.40 0.46 0.52 0.53 0.54 0.57 0.60 0.59 0.58 0.57
0.07 0.08 0.09 0.10 0.11 0.13 0.14 0.13 0.14 0.14 0.13 0.13 0.14 0.15 0.16 0.17 0.17 0.17 0.17 0.17 0.19 0.21 0.24 0.24 0.23 0.24 0.25 0.26 0.29 0.32 0.39 0.39 0.37 0.38 0.42 0.49 0.53 0.54 0.54 0.57 0.61 0.63 0.62
0.10 0.10 0.11 0.12 0.13 0.14 0.16 0.17 0.17 0.17 0.17 0.16 0.16 0.17 0.19 0.20 0.22 0.22 0.21 0.22 0.23 0.25 0.26 0.28 0.27 0.27 0.27 0.28 0.29 0.33 0.37 0.36 0.35 0.37 0.40 0.44 0.50 0.52 0.54 0.55 0.57 0.61 0.65